Find KUIPER-00437

NORAD ID: 68870 Int'l Des: 2026-095G Owner: kuiper Country: USA Constellation: kuiper operational
LEOCIRCULAR

リアルタイム位置

3D地球を読み込み中...

KUIPER-00437について

説明を読み込み中...

次回通過

Passes for default location (London). Set your location on the main map for personalized predictions.

高度履歴

Loading altitude history...

軌道要素

1 68870U 26095G 26120.66670139 -.00007469 00000-0 -19399-3 0 9992
2 68870 51.8783 112.1702 0007473 118.7769 53.2191 15.36764230 1309
Epoch: Apr 30, 2026 • Age: 32 hours

現在のステータス

高度 475.0 km
速度 7.63 km/s
衛星直下点 -42.80°S, 157°W
タイプ internet

Most Searched